SR1WXZ Weather Reports


time (UTC)temp
C
wind
direction
speed
KPH
gust
KPH
rain 1hr
cm
rain 24hr
cm
rain mn
cm
humidity
%
barometer
mb
20260509084548 13 90 11.3 0.0 0.00 0.00 0.00 47 1022.0
20260509083047 13 60 4.8 0.0 0.00 0.00 0.00 41 1022.0
20260509082843 13 60 4.8 0.0 0.00 0.00 0.00 41 1022.0
20260509081549 13 60 4.8 0.0 0.00 0.00 0.00 41 1022.0
20260509080841 12 20 4.8 0.0 0.00 0.00 0.00 43 1022.0
20260509080048 12 20 4.8 0.0 0.00 0.00 0.00 43 1022.0
20260509074845 12 20 4.8 0.0 0.00 0.00 0.00 43 1022.0
20260509074548 12 20 4.8 0.0 0.00 0.00 0.00 43 1022.0
20260509073046 12 0.0 0.0 0.00 0.00 0.00 57 1022.0
20260509072843 12 0.0 0.0 0.00 0.00 0.00 57 1022.0
20260509071549 12 0.0 0.0 0.00 0.00 0.00 57 1022.0
20260509070842 12 0.0 0.0 0.00 0.00 0.00 58 1022.0
20260509070047 12 0.0 0.0 0.00 0.00 0.00 58 1022.0
20260509064845 12 0.0 0.0 0.00 0.00 0.00 58 1022.0
20260509064548 12 0.0 0.0 0.00 0.00 0.00 58 1022.0
20260509063046 10 0.0 0.0 0.00 0.00 0.00 66 1022.0
20260509062844 10 0.0 0.0 0.00 0.00 0.00 66 1022.0
20260509061549 10 0.0 0.0 0.00 0.00 0.00 66 1022.0
20260509060842 7 0.0 0.0 0.00 0.00 0.00 81 1022.0
20260509060047 7 0.0 0.0 0.00 0.00 0.00 81 1022.0
20260509054845 7 0.0 0.0 0.00 0.00 0.00 81 1022.0
20260509054548 7 0.0 0.0 0.00 0.00 0.00 81 1022.0
20260509053047 7 0.0 0.0 0.00 0.00 0.00 81 1022.0
20260509052844 7 0.0 0.0 0.00 0.00 0.00 81 1022.0
20260509051549 7 0.0 0.0 0.00 0.00 0.00 81 1022.0
20260509050842 3 0.0 0.0 0.00 0.00 0.00 93 1022.0
20260509050047 3 0.0 0.0 0.00 0.00 0.00 93 1022.0
20260509044845 3 0.0 0.0 0.00 0.00 0.00 93 1022.0
20260509044548 3 0.0 0.0 0.00 0.00 0.00 93 1022.0
20260509043047 3 0.0 0.0 0.00 0.00 0.00 93 1021.0
20260509042843 3 0.0 0.0 0.00 0.00 0.00 93 1021.0
20260509041550 3 0.0 0.0 0.00 0.00 0.00 93 1021.0
20260509040842 2 0.0 0.0 0.00 0.00 0.00 100 1021.0
20260509040047 2 0.0 0.0 0.00 0.00 0.00 100 1021.0
20260509034846 2 0.0 0.0 0.00 0.00 0.00 100 1021.0
20260509034548 2 0.0 0.0 0.00 0.00 0.00 100 1021.0
20260509033046 2 0.0 0.0 0.00 0.00 0.00 100 1021.0
20260509032844 2 0.0 0.0 0.00 0.00 0.00 100 1021.0
20260509031549 2 0.0 0.0 0.00 0.00 0.00 100 1021.0
20260509030842 3 0.0 0.0 0.00 0.00 0.00 93 1021.0
20260509030046 3 0.0 0.0 0.00 0.00 0.00 93 1021.0
20260509024844 3 0.0 0.0 0.00 0.00 0.00 93 1021.0
20260509024548 3 0.0 0.0 0.00 0.00 0.00 93 1021.0
20260509023046 3 0.0 0.0 0.00 0.00 0.00 93 1021.0
20260509022842 3 0.0 0.0 0.00 0.00 0.00 93 1021.0
20260509021549 3 0.0 0.0 0.00 0.00 0.00 93 1021.0
20260509020840 3 0.0 0.0 0.00 0.00 0.00 93 1021.0
20260509020046 3 0.0 0.0 0.00 0.00 0.00 93 1021.0
20260509014844 3 0.0 0.0 0.00 0.00 0.00 93 1021.0
20260509014548 3 0.0 0.0 0.00 0.00 0.00 93 1021.0
20260509013046 3 0.0 0.0 0.00 0.00 0.00 93 1021.0
20260509012843 3 0.0 0.0 0.00 0.00 0.00 93 1021.0
20260509011549 3 0.0 0.0 0.00 0.00 0.00 93 1021.0
20260509010841 3 30 4.8 0.0 0.00 0.00 0.00 93 1021.0
20260509010050 3 30 4.8 0.0 0.00 0.00 0.00 93 1021.0
20260509004845 3 30 4.8 0.0 0.00 0.00 0.00 93 1021.0
20260509004547 3 30 4.8 0.0 0.00 0.00 0.00 93 1021.0
20260509003046 6 30 4.8 0.0 0.00 0.00 0.00 86 1022.0
20260509002843 6 30 4.8 0.0 0.00 0.00 0.00 86 1022.0
20260509001549 6 30 4.8 0.0 0.00 0.00 0.00 86 1022.0
20260509000842 6 0.0 0.0 0.00 0.00 0.00 86 1022.0
20260509000046 6 0.0 0.0 0.00 0.00 0.00 86 1022.0
20260508234845 6 0.0 0.0 0.00 0.00 0.00 86 1022.0
20260508234548 6 0.0 0.0 0.00 0.00 0.00 86 1022.0
20260508233046 6 10 4.8 0.0 0.00 0.00 0.00 86 1022.0
20260508232843 6 10 4.8 0.0 0.00 0.00 0.00 86 1022.0
20260508231549 6 10 4.8 0.0 0.00 0.00 0.00 86 1022.0
20260508230842 7 0.0 0.0 0.00 0.00 0.00 81 1022.0
20260508230047 7 0.0 0.0 0.00 0.00 0.00 81 1022.0
20260508224845 7 0.0 0.0 0.00 0.00 0.00 81 1022.0
20260508224548 7 0.0 0.0 0.00 0.00 0.00 81 1022.0
20260508223046 7 20 4.8 0.0 0.00 0.00 0.00 81 1022.0
20260508222843 7 20 4.8 0.0 0.00 0.00 0.00 81 1022.0
20260508221556 7 20 4.8 0.0 0.00 0.00 0.00 81 1022.0
20260508220842 7 20 8.0 0.0 0.00 0.00 0.00 81 1021.0
20260508220049 7 20 8.0 0.0 0.00 0.00 0.00 81 1021.0
20260508214852 7 20 8.0 0.0 0.00 0.00 0.00 81 1021.0
20260508214547 7 20 8.0 0.0 0.00 0.00 0.00 81 1021.0
20260508213046 7 10 8.0 0.0 0.00 0.00 0.00 70 1021.0
20260508212850 7 10 8.0 0.0 0.00 0.00 0.00 70 1021.0
20260508211549 7 10 8.0 0.0 0.00 0.00 0.00 70 1021.0
20260508210849 7 10 4.8 0.0 0.00 0.00 0.00 70 1021.0
20260508210046 7 10 4.8 0.0 0.00 0.00 0.00 70 1021.0
20260508204843 7 10 4.8 0.0 0.00 0.00 0.00 70 1021.0
20260508204547 7 10 4.8 0.0 0.00 0.00 0.00 70 1021.0
20260508203045 8 360 8.0 0.0 0.00 0.00 0.00 65 1021.0
20260508202841 8 360 8.0 0.0 0.00 0.00 0.00 65 1021.0
20260508201548 8 360 8.0 0.0 0.00 0.00 0.00 65 1021.0
20260508200840 10 350 9.7 0.0 0.00 0.00 0.00 61 1021.0
20260508200046 10 350 9.7 0.0 0.00 0.00 0.00 61 1021.0
20260508194843 10 350 9.7 0.0 0.00 0.00 0.00 61 1021.0
20260508194547 10 350 9.7 0.0 0.00 0.00 0.00 61 1021.0
20260508193047 10 10 9.7 0.0 0.00 0.00 0.00 57 1021.0
20260508192842 10 10 9.7 0.0 0.00 0.00 0.00 57 1021.0
20260508191548 10 10 9.7 0.0 0.00 0.00 0.00 57 1021.0
20260508190840 11 360 11.3 0.0 0.00 0.00 0.00 53 1020.0
20260508190047 11 360 11.3 0.0 0.00 0.00 0.00 53 1020.0
20260508184844 11 360 11.3 0.0 0.00 0.00 0.00 53 1020.0
20260508184547 11 360 11.3 0.0 0.00 0.00 0.00 53 1020.0
20260508183045 12 360 12.9 0.0 0.00 0.00 0.00 54 1020.0
20260508182842 12 360 12.9 0.0 0.00 0.00 0.00 54 1020.0
20260508181548 12 360 12.9 0.0 0.00 0.00 0.00 54 1020.0
20260508180841 12 20 12.9 0.0 0.00 0.00 0.00 54 1020.0
20260508180047 12 20 12.9 0.0 0.00 0.00 0.00 54 1020.0
20260508174842 12 20 12.9 0.0 0.00 0.00 0.00 54 1020.0
20260508174547 12 20 12.9 0.0 0.00 0.00 0.00 54 1020.0
20260508173045 12 360 16.1 0.0 0.00 0.00 0.00 50 1020.0
20260508172841 12 360 16.1 0.0 0.00 0.00 0.00 50 1020.0
20260508171548 12 360 16.1 0.0 0.00 0.00 0.00 50 1020.0
20260508170839 13 20 11.3 0.0 0.00 0.00 0.00 44 1020.0
20260508170046 13 20 11.3 0.0 0.00 0.00 0.00 44 1020.0
20260508164844 13 20 11.3 0.0 0.00 0.00 0.00 44 1020.0
20260508164547 13 20 11.3 0.0 0.00 0.00 0.00 44 1020.0
20260508163045 13 40 11.3 0.0 0.00 0.00 0.00 41 1020.0
20260508162842 13 40 11.3 0.0 0.00 0.00 0.00 41 1020.0
20260508161548 13 40 11.3 0.0 0.00 0.00 0.00 41 1020.0
20260508160840 13 360 12.9 0.0 0.00 0.00 0.00 41 1020.0
20260508160046 13 360 12.9 0.0 0.00 0.00 0.00 41 1020.0
20260508154844 13 360 12.9 0.0 0.00 0.00 0.00 41 1020.0
20260508154547 13 360 12.9 0.0 0.00 0.00 0.00 41 1020.0
20260508153046 12 10 11.3 0.0 0.00 0.00 0.00 50 1020.0
20260508152843 12 10 11.3 0.0 0.00 0.00 0.00 50 1020.0
20260508151548 12 10 11.3 0.0 0.00 0.00 0.00 50 1020.0
20260508150841 13 360 11.3 0.0 0.00 0.00 0.00 47 1020.0
20260508150046 13 360 11.3 0.0 0.00 0.00 0.00 47 1020.0
20260508144850 13 360 11.3 0.0 0.00 0.00 0.00 47 1020.0
20260508144547 13 360 11.3 0.0 0.00 0.00 0.00 47 1020.0
20260508143045 12 50 11.3 0.0 0.00 0.00 0.00 50 1020.0
20260508142849 12 50 11.3 0.0 0.00 0.00 0.00 50 1020.0
20260508141555 12 50 11.3 0.0 0.00 0.00 0.00 50 1020.0
20260508140847 12 20 12.9 0.0 0.00 0.00 0.00 50 1020.0
20260508140046 12 20 12.9 0.0 0.00 0.00 0.00 50 1020.0
20260508134843 12 20 12.9 0.0 0.00 0.00 0.00 50 1020.0
20260508134546 12 20 12.9 0.0 0.00 0.00 0.00 50 1020.0
20260508133045 12 20 11.3 0.0 0.00 0.00 0.00 50 1021.0
20260508132842 12 20 11.3 0.0 0.00 0.00 0.00 50 1021.0
20260508131548 12 20 11.3 0.0 0.00 0.00 0.00 50 1021.0
20260508130840 13 30 9.7 0.0 0.00 0.00 0.00 50 1021.0
20260508130047 13 30 9.7 0.0 0.00 0.00 0.00 50 1021.0
20260508124843 13 30 9.7 0.0 0.00 0.00 0.00 50 1021.0
20260508124546 13 30 9.7 0.0 0.00 0.00 0.00 50 1021.0
20260508123045 12 50 12.9 0.0 0.00 0.00 0.00 50 1021.0
20260508122842 12 50 12.9 0.0 0.00 0.00 0.00 50 1021.0
20260508121548 12 50 12.9 0.0 0.00 0.00 0.00 50 1021.0
20260508120840 12 40 12.9 0.0 0.00 0.00 0.00 50 1021.0
20260508120046 12 40 12.9 0.0 0.00 0.00 0.00 50 1021.0
20260508114843 12 40 12.9 0.0 0.00 0.00 0.00 50 1021.0
20260508114546 12 40 12.9 0.0 0.00 0.00 0.00 50 1021.0
20260508113045 12 0.0 0.0 0.00 0.00 0.00 50 1021.0
20260508112842 12 0.0 0.0 0.00 0.00 0.00 50 1021.0
20260508111548 12 0.0 0.0 0.00 0.00 0.00 50 1021.0
20260508110840 12 0.0 0.0 0.00 0.00 0.00 57 1021.0
20260508110046 12 0.0 0.0 0.00 0.00 0.00 57 1021.0
20260508104843 12 0.0 0.0 0.00 0.00 0.00 57 1021.0
20260508104546 12 0.0 0.0 0.00 0.00 0.00 57 1021.0
20260508103045 12 60 11.3 0.0 0.00 0.00 0.00 57 1021.0
20260508102841 12 60 11.3 0.0 0.00 0.00 0.00 57 1021.0
20260508101548 12 60 11.3 0.0 0.00 0.00 0.00 57 1021.0
20260508100840 11 80 12.9 0.0 0.00 0.00 0.00 61 1021.0
20260508100046 11 80 12.9 0.0 0.00 0.00 0.00 61 1021.0
20260508094843 11 80 12.9 0.0 0.00 0.00 0.00 61 1021.0
20260508094548 11 80 12.9 0.0 0.00 0.00 0.00 61 1021.0
20260508093045 11 50 12.9 0.0 0.00 0.00 0.00 57 1021.0
20260508092841 11 50 12.9 0.0 0.00 0.00 0.00 57 1021.0
20260508091548 11 50 12.9 0.0 0.00 0.00 0.00 57 1021.0
20260508090839 11 40 11.3 0.0 0.00 0.00 0.00 61 1021.0
20260508090046 11 40 11.3 0.0 0.00 0.00 0.00 61 1021.0
20260508084843 11 40 11.3 0.0 0.00 0.00 0.00 61 1021.0